www.pogodaiklimat.ru

Погода и климат >> Архив погоды >> Канада >> Нунавут >> Остров Хат


ПОГОДА на Острове Хат

  • Прогноз погоды на Острове Хат
  • Монитор погоды на Острове Хат

АРХИВ ПОГОДЫ на Острове Хат

Время (UTC), дата Ветер
(напр.,м/с)
 
Видим.   Явления Облачность Т
(С)
Тd
(С)
f
(%)
Тe
(С)
Тes
(С)
Комфортность P
(гПа)
Po
(гПа)
Тmin
(С)
Tmax
(С)
R
(мм)
R24
(мм)
S
(см)
00 16.04 З 5 н/о ясно -24.0 -26.3 81 -35 -34 опасность
обморожения
1022.3 1017.3
03 16.04 З 8 н/о ясно -27.8 -30.3 79 -42 -42 опасность
обморожения
1023.4 1018.3
06 16.04 З 8 н/о ясно -29.7 -32.3 78 -45 -45 опасность
обморожения
1023.0 1018.0 -33.0 -22.4
09 16.04 З 8 н/о ясно -31.6 -34.4 76 -48 -48 опасность
обморожения
1023.1 1018.1
12 16.04 З 7 н/о ясно -32.0 -34.7 77 -47 -47 опасность
обморожения
1023.5 1018.5
15 16.04 З 5 н/о ясно -28.7 -31.3 78 -41 -39 опасность
обморожения
1023.9 1018.8
18 16.04 ЮЗ 5 н/о ясно -22.9 -25.2 81 -34 -30 опасность
обморожения
1024.4 1019.4
21 16.04 З 4 н/о ясно -20.7 -22.8 83 -30 -27 1022.7 1017.7
00 17.04 З 3 н/о ясно -21.2 -23.3 83 -29 -28 1022.7 1017.7
03 17.04 ЮЗ 3 н/о ясно -23.6 -25.7 83 -31 -31 опасность
обморожения
1023.3 1018.3
06 17.04 В 1 н/о 5/0
[]
-22.5 -24.6 83 -23 -23 1023.0 1018.0 -32.7 -19.5
09 17.04 В 1 н/о 10/0
[]
-23.4 -25.6 82 -27 -27 1022.0 1017.0
12 17.04 В 3 н/о ясно -25.6 -28.0 80 -34 -34 опасность
обморожения
1019.6 1014.6
15 17.04 В 3 н/о ясно -23.8 -26.1 81 -31 -28 опасность
обморожения
1018.7 1013.7
18 17.04 СВ 3 н/о ясно -20.8 -22.9 83 -28 -22 1018.2 1013.3
21 17.04 С 3 н/о ясно -18.8 -20.8 84 -26 -22 1020.6 1015.7
00 18.04 С 4 н/о ясно -19.8 -21.9 83 -28 -27 1018.4 1013.4
03 18.04 С 4 н/о 10/10 1500 м
[]
-22.1 -23.9 85 -31 -31 опасность
обморожения
1018.3 1013.3
06 18.04 С 3 н/о 10/10 1500 м
[]
-23.5 -25.6 83 -31 -31 опасность
обморожения
1018.9 1013.9 -27.6 -17.8
09 18.04 С 2 н/о 10/10 1500 м
[]
-22.8 -24.9 83 -28 -28 1020.2 1015.3
12 18.04 З 3 н/о 5/5 1500 м
[]
-25.1 -27.5 80 -34 -34 опасность
обморожения
1020.9 1015.9
15 18.04 З 4 н/о ясно -24.8 -27.1 81 -34 -32 опасность
обморожения
1018.8 1013.8
18 18.04 ЮЗ 5 н/о ясно -21.3 -23.4 83 -31 -27 опасность
обморожения
1017.6 1012.7
21 18.04 З 5 н/о ясно -18.6 -20.5 85 -28 -25 1018.9 1014.0
00 19.04 ЮЗ 6 н/о ясно -20.2 -22.3 83 -31 -31 опасность
обморожения
1016.6 1011.7
03 19.04 ЮЗ 7 н/о ясно -24.6 -26.6 83 -38 -38 опасность
обморожения
1013.9 1008.9
06 19.04 З 7 н/о ясно -25.2 -27.4 82 -39 -39 опасность
обморожения
1012.6 1007.7 -26.5 -18.1
09 19.04 СЗ 4 н/о 9/9 50 м
[]
-26.0 -28.4 80 -36 -36 опасность
обморожения
1013.8 1008.9
12 19.04 С 5 н/о 9/9 50 м
[]
-28.9 -31.5 78 -41 -41 опасность
обморожения
1013.9 1008.9
15 19.04 С 4 н/о ясно -25.4 -27.8 80 -35 -32 опасность
обморожения
1012.7 1007.7
18 19.04 СЗ 4 н/о ясно -22.0 -24.3 82 -32 -27 опасность
обморожения
1015.3 1010.3
21 19.04 СЗ 6 н/о ясно -22.3 -25.0 79 -34 -32 опасность
обморожения
1014.9 1009.9
00 20.04 СЗ 5 н/о ясно -23.6 -26.4 78 -35 -34 опасность
обморожения
1015.0 1010.0
03 20.04 СЗ 7 н/о ясно -27.4 -29.7 81 -41 -41 опасность
обморожения
1015.9 1010.9
06 20.04 СЗ 5 н/о 10/0 2000 м
[]
-26.7 -29.0 81 -38 -38 опасность
обморожения
1016.5 1011.5 -29.2 -21.5
09 20.04 СЗ 5 н/о 10/10 1500 м
[]
-23.7 -26.0 81 -35 -35 опасность
обморожения
1017.4 1012.4
12 20.04 СЗ 6 н/о 10/10 1500 м
[]
-22.3 -24.7 81 -34 -34 опасность
обморожения
1019.0 1014.0
15 20.04 С 5 н/о 10/10 1500 м
[]
-20.9 -24.1 75 -31 -31 опасность
обморожения
1020.4 1015.4
18 20.04 С 4 н/о 10/10 1500 м
[]
-19.5 -23.4 71 -28 -28 1020.2 1015.2
21 20.04 СЗ 5 н/о 10/10 1500 м
[]
-19.3 -22.6 75 -29 -29 1022.0 1017.0
00 21.04 З 5 н/о 10/10 1000 м
[]
-19.3 -22.4 76 -29 -29 1023.5 1018.5
03 21.04 З 5 н/о 10/10 1000 м
[]
-19.8 -22.3 80 -29 -29 1021.9 1017.0
06 21.04 З 5 н/о 10/10 100 м
[]
-19.7 -21.8 83 -29 -29 1022.1 1017.2 -26.7 -19.1
09 21.04 ЮЗ 6 н/о 9/9 50 м
[]
-21.9 -23.6 86 -33 -33 опасность
обморожения
1023.3 1018.3
12 21.04 З 5 н/о ясно -23.0 -25.1 83 -34 -34 опасность
обморожения
1023.2 1018.2
15 21.04 З 5 н/о ясно -23.5 -25.7 82 -35 -33 опасность
обморожения
1020.4 1015.4
18 21.04 З 5 н/о ясно -19.4 -21.3 85 -29 -26 1022.0 1017.1
21 21.04 З 10 н/о ясно -18.0 -20.4 81 -31 -31 опасность
обморожения
1018.9 1014.0
00 22.04 З 10 н/о 10/10 600 м
[]
-18.6 -21.1 81 -32 -32 опасность
обморожения
1018.4 1013.5
03 22.04 СЗ 8 н/о 9/9 300 м
[]
-22.6 -24.6 84 -36 -36 опасность
обморожения
1021.3 1016.3
06 22.04 С 8 н/о ясно -25.4 -27.5 83 -39 -39 опасность
обморожения
1021.0 1016.0 -25.4 -18.0
09 22.04 С 4 н/о ясно -26.2 -28.5 81 -36 -36 опасность
обморожения
1025.1 1020.1
12 22.04 СЗ 2 н/о ясно -24.8 -27.1 81 -32 -31 опасность
обморожения
1024.3 1019.3
15 22.04 ЮЗ 2 н/о ясно -22.5 -24.7 82 -29 -25 1025.0 1020.0
18 22.04 ЮЗ 4 н/о ясно -20.6 -22.7 83 -29 -24 1024.4 1019.4
21 22.04 ЮЗ 2 н/о ясно -18.1 -20.0 85 -24 -18 1025.5 1020.5

 

Местоположение метеостанции Остров Хат (Нунавут, Канада): широта 68.32 долгота -100.00 высота над уровнем моря 36 м.

В архиве по умолчанию представлена погода на Острове Хат за последнюю неделю. Архивные данные за месяц целиком и за предыдущие месяцы, начиная с января 2011 года, Вы можете получить, выбрав интересующий диапазон дат из раскрывающегося списка и нажав кнопку "Ввод!".


*Определитесь, кто Вы:
робот инопланетянин человек

Внимание! Время в таблицах - всемирное. Для получения местного времени необходимо прибавить поправку, которая равна -6 ч.

Смотрите также архив погоды в соседних городах и на ближайших метеорологических станциях:

Погода в Джойа Хейвен (Нунавут, Канада) (173 км)
Погода в Кеймбридж-Бее (Нунавут, Канада) (223 км)
Погода в Кембридж Бэй (Нунавут, Канада) (223 км)
Погода в Шеперд-Бее (Нунавут, Канада) (273 км)
Погода в Талойоаке (Нунавут, Канада) (291 км)
Погода в Глеичене (Альберта, Канада) (291 км)
Погода на Мысе Пил-Вест (Нунавут, Канада) (325 км)
Погода на Озере Робертсон (Нунавут, Канада) (373 км)
Погода в Кугааруке (Нунавут, Канада) (417 км)
Погода в Кам Фор (Нунавут, Канада) (421 км)

Пояснения к столбцам:

Ветер - указаны скорость ветра в м/с - средняя за 10 мин, порывы в срок и между сроками (в фигурных скобках) и направление, откуда дует ветер: С - северный, СВ - северо-восточный, В - восточный, ЮВ - юго-восточный, Ю - южный, ЮЗ - юго-западный, З - западный, СЗ - северо-западный.
Видимость - горизонтальная дальность видимости в метрах или километрах. При видимости от 1 до 10 км при отсутствии осадков обычно наблюдается дымка, при ухудшении видимости до 1 км и менее - туман. В сухую погоду видимость может ухудшаться дымом, пылью или мглою.
Явления - указаны атмосферные явления, наблюдавшиеся в срок или в последний час перед сроком; фигурными скобками обозначены явления, наблюдавшиеся между сроками (за 1-3 часа до срока); квадратными скобками обозначены град или гололедные отложения с указанием их диаметра в мм.
Облачность - указаны через наклонную черту общая и нижняя облачность в баллах и высота нижней границы облаков в метрах; квадратными скобками обозначены формы облаков: Ci - перистые, Cs - перисто-слоистые, Cc - перисто-кучевые, Ac - высококучевые, As - высокослоистые, Sc - слоисто-кучевые, Ns - слоисто-дождевые, Cu - кучевые, Cb - кучево-дождевые. Подробнее классификацию облаков см. в Атласе облаков (PDF).
T - Температура воздуха - температура, измеренная на высоте 2 м над землей.
Td - Температура точки росы - температура, при понижении до которой содержащийся в воздухе водяной пар достигнет насыщения.
f - Относительная влажность воздуха - влажноcть воздуха, измеренная на высоте 2 м над землей.
Te - Эффективная температура - температура, которую ощущает одетый по сезону человек в тени. Характеристика душности погоды. При расчете учитывается влияние влажности воздуха и скорости ветра на теплоощущения человека.
Tes - Эффективная температура на солнце - температура, которую ощущает человек, с поправкой на солнечный нагрев. Характеристика знойности погоды. Зависит от высоты солнца над горизонтом, облачности и скорости ветра. Ночью, в пасмурную погоду, а также при ветре 12 м/с и более поправка равна нулю.
P - Атмосферное давление - приведенное к уровню моря атмосферное давление.
Po - Атмосферное давление - измеренное на уровне метеостанции атмосферное давление.
Tmin - Минимальная температура - минимум температуры воздуха на высоте 2 м над землей.
Tmax - Максимальная температура - максимум температуры воздуха на высоте 2 м над землей.
R - Количество осадков - Количество выпавших осадков за период времени, мм. При наведении курсора мыши на число - период времени, за который выпало указанное количество осадков.
R24 - Количество осадков - Количество выпавших осадков за 24 часа, мм.
S - Снежный покров - Высота снежного покрова, см. При наведении курсора мыши на число - состояние снежного покрова и степень покрытия местности в баллах.